Location: Newark
(7.0858°N, 171.3717°E)
Time: 07:59:18
(UTC+00:00)

Courier 1B - Pass Details

Date: 30 November 2020
Orbit: 962 x 1209 km, 28.3° (Epoch: 20 January)

Event Time Altitude Azimuth Distance (km) Brightness Sun altitude
Rises 16:40:35 0° 301° (WNW) 3,992 - -26.5°
Reaches altitude 10° 16:43:20 10° 303° (WNW) 3,060 - -25.8°
Exits shadow 16:48:19 45° 311° (NW) 1,563 8.1 -24.7°
Maximum altitude 16:51:01 79° 29° (NNE) 1,213 7.9 -24.0°
Drops below altitude 10° 16:58:54 10° 116° (ESE) 3,141 11.3 -22.2°
Sets 17:01:46 0° 117° (ESE) 4,102 12.3 -21.5°
